Wind_Speed
34 35 31 30 27 26 24 24 25 24 23 23 25 26 26 29 29 30 30 27 25 20 22 20 20 21 16 17 19 22 23 29 30 27 26 27 26 25 21 20 20 20 18
37 35 35 34 32 30 29 28 30 29 28 26 25 28 29 29 32 32 35 34 30 29 27 26 23 20 20 20 19 20 21 24 20 21 24 23 23 26 24 23 22 24 26
45 41 40 39 39 38 36 38 36 34 34 34 31 31 32 34 36 37 37 36 35 34 31 26 25 24 26 24 20 21 22 21 21 22 23 23 23 24 25 27 26 27 30
49 47 44 44 43 44 43 41 42 43 40 39 37 37 37 37 36 38 37 37 36 35 33 32 31 29 29 29 29 29 29 27 30 30 23 24 24 25 24 27 30 33 34
48 52 50 50 47 47 48 49 47 46 46 48 45 40 39 41 42 44 43 41 40 39 38 37 37 36 33 33 33 33 33 33 34 35 31 29 30 29 31 32 31 34 37
55 53 55 55 53 51 51 52 52 54 52 53 50 50 47 44 43 43 47 45 44 43 43 43 43 42 40 37 37 37 37 37 37 38 36 35 36 35 34 35 38 37 39
60 59 58 59 60 61 64 62 59 54 55 55 55 53 54 53 52 49 48 51 49 47 46 46 46 47 46 45 42 42 41 42 42 42 41 39 39 39 39 38 39 39 40
63 64 65 64 65 64 64 64 61 60 60 60 60 62 61 59 59 58 57 55 55 55 53 52 52 51 51 51 50 49 47 47 46 45 47 45 43 43 42 43 43 41 40
68 69 71 70 72 70 69 68 69 69 68 68 69 68 66 66 65 65 65 65 61 60 61 60 58 55 56 56 55 53 52 51 51 51 51 50 48 47 45 45 45 45 44
69 70 71 71 68 69 69 71 70 71 70 72 66 66 66 69 70 70 67 67 68 68 66 63 62 63 61 61 59 57 56 55 56 56 56 54 53 50 49 47 46 45 44
69 70 70 69 69 72 71 69 70 72 72 70 68 68 68 69 70 69 67 67 69 70 70 70 71 68 65 64 64 63 61 60 60 60 58 58 55 55 55 51 50 48 46
79 79 80 79 77 79 78 77 78 79 80 79 80 81 79 75 74 74 74 73 72 72 72 74 74 72 71 68 67 66 66 65 66 65 64 62 60 57 57 57 52 52 48
83 82 82 81 82 83 84 84 85 85 86 86 87 85 84 84 83 84 82 81 80 78 80 79 78 78 77 76 74 73 71 69 70 71 70 67 65 62 59 59 57 53 51
89 89 90 88 88 88 89 90 88 88 89 90 90 88 87 87 87 89 88 87 86 86 85 85 84 83 82 82 81 79 77 75 74 74 72 72 71 68 65 62 59 56 51
89 90 90 91 91 91 89 90 89 89 90 90 91 92 92 91 91 91 91 91 91 91 90 89 89 89 88 88 86 84 83 81 79 77 77 74 72 71 68 66 61 58 53
81 84 87 89 91 92 92 93 93 92 93 93 93 93 94 94 95 94 94 95 95 96 97 97 96 96 95 93 90 88 88 85 83 83 81 80 78 74 71 68 65 61 58
66 71 76 80 83 87 90 91 92 93 96 98 98 98 100 101 101 99 99 99 99 99 99 101 101 100 100 99 98 95 93 92 89 88 87 85 83 80 76 73 68 65 62
56 58 61 64 67 72 77 81 84 85 86 89 94 97 100 103 104 105 107 106 106 105 105 106 106 105 105 104 104 103 99 97 97 94 91 91 89 87 84 79 74 70 66
61 63 64 65 66 67 68 69 72 74 76 77 80 81 84 88 91 96 99 102 106 107 106 108 108 109 108 108 106 106 106 106 102 100 99 97 95 92 89 85 81 77 71
64 65 67 69 71 73 73 74 75 76 77 78 79 79 80 81 82 83 85 87 89 91 94 98 101 104 106 108 109 108 108 108 108 106 103 101 100 99 97 92 86 83 78
68 69 71 72 74 75 76 77 80 81 81 81 82 83 84 85 86 87 88 89 90 90 91 92 93 95 96 97 98 100 102 105 107 109 107 106 105 103 102 99 94 88 85
57 62 67 70 73 76 78 80 82 83 83 84 85 86 87 88 90 91 94 96 97 97 98 98 99 100 101 100 99 98 99 101 99 101 104 109 110 104 104 103 100 97 91
55 57 58 60 65 69 75 79 81 84 87 88 89 90 90 90 91 92 93 93 94 95 96 97 98 99 100 102 103 103 103 102 104 104 102 101 102 105 109 105 104 101 94
62 63 63 65 69 72 75 79 82 83 84 86 87 88 90 92 93 94 96 97 96 96 97 99 100 100 101 103 105 105 105 104 103 102 108 107 106 105 102 101 105 107 102
71 71 70 72 75 79 82 84 85 86 87 89 90 91 92 93 93 93 95 96 98 98 99 101 103 104 106 107 108 110 111 111 110 108 106 112 109 109 110 106 103 96 101
78 76 76 78 82 84 87 87 88 89 90 91 93 94 95 95 94 96 98 100 101 103 104 106 108 111 112 112 114 114 115 116 117 117 114 113 116 116 112 109 109 106 98
Wind_Direction
215 217 221 219 221 226 228 232 234 239 243 248 251 253 243 243 244 247 257 266 264 275 276 281 281 284 300 301 280 279 284 291 292 291 288 286 283 280 275 278 285 292 290
225 227 233 237 232 229 235 237 234 237 243 245 249 249 250 245 243 247 264 269 263 263 266 263 268 279 283 289 287 281 284 286 288 291 294 289 293 288 282 281 291 299 304
231 234 241 242 245 244 238 242 247 248 246 249 250 252 249 248 249 255 259 260 262 258 260 260 263 266 271 275 281 280 282 279 285 286 285 287 288 290 284 285 292 297 298
233 236 241 248 252 251 250 251 254 251 251 251 252 253 254 253 254 258 262 260 257 257 258 257 260 264 270 275 274 276 278 274 281 283 278 289 288 287 286 284 289 292 291
243 241 245 250 253 252 253 257 260 258 253 253 252 253 253 251 257 261 261 261 260 259 259 260 262 264 264 264 268 275 274 273 276 278 275 281 284 282 279 286 286 288 289
246 248 251 257 255 254 256 259 260 260 260 257 255 257 258 256 253 257 256 256 256 257 256 258 260 263 265 268 268 270 272 274 274 272 275 277 279 282 281 280 282 285 286
250 253 254 255 258 262 264 266 264 262 259 258 258 259 261 260 261 259 257 256 255 257 258 258 258 260 260 262 264 265 266 268 272 271 272 275 276 279 282 286 284 284 285
246 246 250 256 259 261 263 263 261 262 261 260 261 264 266 263 262 261 261 261 257 256 255 257 258 260 262 263 264 265 267 265 266 267 268 272 278 278 281 282 283 283 283
244 247 251 255 259 261 261 262 264 264 263 263 265 265 265 264 263 264 265 263 257 255 256 256 256 257 258 259 261 264 266 267 268 269 269 271 273 277 280 281 284 284 285
247 248 251 254 255 258 259 259 262 264 263 264 262 263 263 263 263 263 262 261 260 258 258 256 257 259 261 261 261 261 265 265 266 267 268 268 270 274 277 278 282 282 284
245 247 250 252 255 257 257 258 260 261 263 261 263 265 265 265 265 263 262 261 260 257 255 257 259 259 260 260 260 262 264 265 266 267 269 270 271 274 275 276 280 283 283
252 252 253 254 255 255 255 257 257 256 260 261 263 264 263 264 264 265 264 261 259 258 257 257 258 260 263 260 259 260 261 262 263 265 266 267 269 271 274 277 278 281 283
255 257 257 258 259 258 259 260 260 261 261 263 265 264 262 263 264 264 265 265 263 259 260 257 257 259 261 262 263 263 262 261 262 263 264 266 266 268 271 274 275 277 280
257 258 259 259 259 260 261 262 262 262 263 264 265 265 263 262 263 264 263 262 262 261 261 261 259 258 259 260 262 263 261 262 262 262 263 264 265 266 266 270 272 273 273
257 258 259 260 260 260 260 260 259 260 262 262 262 263 264 263 263 262 261 261 259 259 259 259 258 259 259 258 259 260 259 259 259 260 261 261 263 264 265 268 267 267 268
257 257 257 258 258 258 258 259 260 260 261 261 261 261 261 262 262 261 261 261 261 260 260 260 260 261 261 261 259 259 260 260 260 260 260 261 261 261 261 263 264 265 265
260 260 258 258 259 259 259 259 260 261 262 261 262 262 263 263 262 262 262 262 261 261 260 260 260 260 261 261 261 260 259 260 259 258 258 258 260 261 260 260 260 262 264
263 262 260 260 261 262 261 259 259 259 260 261 261 261 261 261 261 261 261 262 262 262 262 261 260 260 261 261 261 261 259 258 259 259 257 258 257 257 257 258 259 258 260
268 268 268 268 267 266 265 264 263 263 263 262 262 262 262 262 262 262 262 262 262 263 263 262 263 263 263 262 261 261 261 261 258 258 258 257 256 257 257 255 257 258 257
267 268 267 267 267 267 267 268 267 267 266 266 266 265 265 264 264 263 263 262 262 262 261 262 262 263 263 264 263 263 262 261 261 259 257 257 258 256 255 255 253 254 255
267 267 268 268 268 268 268 268 267 267 266 265 265 265 265 264 264 264 264 264 264 264 264 264 263 263 262 260 260 261 263 263 263 262 261 259 257 258 255 254 253 253 253
269 268 268 269 270 270 270 269 268 267 267 267 267 266 266 266 266 265 265 265 265 265 265 265 264 264 264 263 263 262 264 265 263 261 261 261 259 257 257 256 254 252 251
269 269 270 273 274 272 272 271 271 270 270 269 268 268 267 266 266 266 266 267 266 266 266 266 265 265 265 265 264 263 262 261 262 263 262 262 261 260 255 255 255 252 250
270 268 269 271 272 273 275 275 274 273 271 271 270 270 269 268 267 267 267 267 267 267 267 267 267 266 266 266 266 265 263 261 259 259 263 260 259 260 259 257 252 253 250
274 271 271 272 273 274 275 275 276 275 274 273 272 271 271 269 269 268 266 265 266 266 265 266 266 266 265 265 266 266 267 265 263 258 256 261 258 257 256 256 257 252 251
278 275 274 273 272 274 275 275 275 275 274 274 273 272 271 270 269 267 266 266 266 266 266 266 266 266 266 265 265 265 265 265 265 264 262 259 261 257 255 257 256 256 252
Height
10863 10866 10867 10869 10872 10874 10876 10877 10879 10881 10882 10884 10884 10885 10887 10888 10890 10891 10892 10893 10893 10893 10894 10895 10897 10899 10897 10899 10900 10902 10902 10903 10904 10904 10906 10906 10906 10906 10906 10908 10907 10906 10905
10860 10862 10864 10866 10869 10870 10873 10874 10875 10877 10879 10880 10881 10881 10881 10883 10884 10886 10886 10887 10888 10891 10893 10894 10893 10894 10896 10897 10897 10898 10899 10900 10899 10900 10900 10900 10900 10901 10902 10901 10901 10900 10899
10855 10856 10858 10860 10864 10866 10868 10870 10872 10873 10874 10875 10877 10878 10878 10878 10880 10881 10881 10883 10885 10887 10888 10887 10889 10891 10893 10893 10894 10895 10896 10896 10897 10897 10897 10898 10896 10897 10896 10896 10896 10895 10893
10849 10851 10853 10854 10857 10859 10861 10864 10867 10868 10868 10870 10871 10873 10874 10874 10874 10874 10876 10878 10879 10881 10882 10885 10887 10886 10887 10887 10890 10892 10893 10893 10893 10894 10894 10893 10892 10894 10893 10893 10891 10889 10889
10843 10846 10847 10849 10851 10853 10855 10857 10859 10861 10863 10864 10866 10867 10869 10870 10870 10871 10870 10871 10873 10874 10876 10878 10879 10881 10882 10884 10885 10884 10886 10889 10888 10888 10890 10889 10891 10889 10888 10887 10887 10886 10885
10835 10838 10840 10842 10844 10847 10849 10850 10852 10853 10856 10858 10858 10861 10863 10864 10865 10866 10866 10866 10867 10869 10870 10871 10872 10873 10874 10875 10876 10878 10879 10880 10881 10883 10884 10884 10883 10885 10884 10884 10884 10882 10880
10827 10829 10832 10833 10836 10837 10840 10842 10844 10845 10847 10848 10850 10853 10855 10857 10858 10858 10859 10860 10861 10862 10863 10864 10865 10866 10867 10868 10869 10871 10873 10873 10874 10875 10876 10878 10877 10878 10878 10877 10875 10876 10874
10818 10821 10822 10825 10826 10828 10829 10831 10834 10836 10837 10839 10841 10844 10844 10846 10847 10848 10849 10851 10853 10855 10856 10857 10857 10857 10858 10859 10861 10863 10865 10866 10866 10867 10869 10871 10871 10870 10870 10870 10870 10869 10868
10808 10810 10812 10815 10816 10818 10820 10821 10822 10824 10827 10829 10831 10832 10834 10834 10836 10837 10839 10840 10842 10843 10845 10847 10848 10848 10848 10850 10852 10854 10856 10857 10858 10858 10860 10862 10864 10864 10862 10863 10863 10863 10862
10798 10799 10801 10803 10804 10806 10807 10809 10809 10811 10813 10816 10817 10819 10820 10821 10823 10825 10827 10828 10830 10832 10835 10837 10838 10838 10840 10842 10843 10845 10847 10848 10849 10849 10851 10854 10855 10855 10856 10856 10856 10856 10855
10787 10789 10790 10792 10793 10794 10796 10797 10797 10798 10800 10802 10804 10807 10809 10809 10810 10813 10815 10816 10818 10820 10822 10824 10825 10827 10830 10832 10834 10836 10837 10838 10838 10838 10839 10842 10844 10846 10846 10848 10848 10847 10848
10773 10776 10777 10779 10781 10783 10783 10784 10785 10786 10787 10789 10791 10794 10797 10798 10799 10800 10802 10804 10805 10807 10809 10812 10812 10813 10816 10820 10822 10824 10826 10827 10827 10827 10828 10830 10833 10836 10837 10837 10840 10839 10839
10758 10760 10761 10763 10765 10767 10768 10769 10771 10771 10772 10774 10776 10777 10780 10782 10785 10787 10788 10790 10792 10793 10796 10797 10798 10799 10801 10805 10809 10811 10813 10816 10816 10816 10817 10819 10822 10823 10826 10827 10829 10829 10830
10743 10745 10746 10748 10749 10751 10752 10754 10755 10756 10756 10757 10758 10761 10763 10764 10766 10768 10770 10772 10774 10775 10777 10779 10782 10782 10786 10788 10792 10794 10798 10801 10803 10804 10805 10807 10810 10813 10815 10816 10818 10819 10821
10727 10728 10729 10730 10732 10733 10734 10736 10737 10737 10738 10740 10741 10742 10744 10746 10748 10748 10750 10752 10755 10757 10757 10760 10762 10765 10768 10771 10775 10776 10780 10784 10786 10789 10790 10793 10796 10800 10803 10804 10807 10809 10811
10710 10710 10711 10712 10713 10714 10715 10717 10717 10719 10720 10722 10723 10723 10724 10725 10727 10729 10730 10732 10734 10737 10739 10740 10742 10744 10748 10752 10757 10760 10761 10767 10770 10772 10774 10776 10780 10785 10789 10792 10795 10797 10799
10692 10692 10693 10694 10694 10695 10696 10696 10697 10698 10700 10702 10703 10704 10704 10705 10706 10707 10708 10711 10713 10715 10717 10720 10721 10723 10727 10729 10731 10739 10743 10745 10751 10754 10756 10760 10763 10768 10774 10777 10782 10785 10787
10678 10678 10677 10677 10677 10677 10676 10677 10677 10678 10678 10679 10680 10682 10683 10684 10685 10686 10687 10689 10691 10693 10695 10697 10699 10701 10706 10709 10710 10712 10720 10726 10727 10732 10738 10741 10745 10749 10755 10761 10765 10771 10774
10663 10662 10661 10661 10661 10661 10661 10661 10661 10661 10661 10661 10661 10662 10662 10663 10663 10664 10665 10667 10668 10670 10671 10673 10675 10678 10681 10685 10688 10690 10694 10699 10706 10710 10714 10719 10724 10729 10735 10744 10748 10754 10760
10649 10648 10647 10646 10646 10645 10645 10645 10645 10644 10644 10644 10644 10644 10644 10644 10644 10644 10644 10644 10645 10647 10648 10651 10652 10654 10658 10661 10664 10668 10669 10674 10678 10686 10691 10697 10700 10707 10713 10721 10731 10737 10743
10633 10632 10630 10630 10629 10629 10628 10628 10627 10626 10626 10627 10626 10626 10626 10625 10625 10625 10624 10624 10624 10625 10626 10628 10629 10630 10633 10637 10639 10642 10643 10647 10654 10658 10665 10674 10680 10682 10692 10699 10709 10719 10724
10617 10615 10613 10612 10612 10611 10610 10609 10608 10607 10607 10607 10606 10605 10604 10603 10603 10602 10602 10602 10602 10603 10605 10606 10607 10607 10609 10613 10618 10623 10625 10621 10630 10632 10639 10643 10652 10660 10669 10676 10685 10696 10704
10601 10599 10597 10595 10592 10590 10588 10586 10585 10585 10585 10585 10585 10584 10583 10582 10581 10580 10579 10579 10578 10579 10579 10580 10580 10582 10582 10583 10588 10594 10601 10607 10604 10605 10614 10618 10623 10630 10643 10651 10659 10671 10682
10584 10581 10579 10576 10573 10571 10569 10567 10565 10563 10562 10561 10560 10560 10560 10559 10558 10557 10555 10555 10555 10555 10555 10555 10555 10555 10556 10556 10558 10562 10569 10578 10585 10592 10579 10592 10601 10605 10613 10621 10635 10645 10658
10565 10563 10560 10557 10553 10551 10548 10545 10542 10540 10538 10537 10536 10535 10534 10534 10533 10532 10531 10530 10530 10530 10529 10528 10528 10528 10530 10529 10530 10532 10535 10541 10549 10562 10571 10556 10572 10578 10586 10597 10605 10619 10628
10545 10543 10540 10536 10532 10528 10525 10522 10519 10516 10514 10512 10511 10509 10508 10508 10507 10506 10505 10504 10503 10503 10501 10499 10499 10499 10500 10501 10502 10503 10505 10508 10510 10520 10534 10543 10537 10544 10561 10575 10585 10591 10604